Time,TemperatureF,DewpointF,PressureIn,WindDirection,WindDirectionDegrees,WindSpeedMPH,WindSpeedGustMPH,Humidity,HourlyPrecipIn,Conditions,Clouds,dailyrainin,SoftwareType,DateUTC
2013-01-04 00:02:00,27.4,22.6,30.30,West,259,2.0,7.0,82,0.00,,,0.00,Wunderground v.1.15,2013-01-04 05:02:00,
2013-01-04 00:03:00,27.4,22.6,30.31,WSW,258,2.0,7.0,82,0.00,,,0.00,Wunderground v.1.15,2013-01-04 05:03:00,
2013-01-04 00:05:00,27.4,22.6,30.30,WSW,244,3.0,7.0,82,0.00,,,0.00,Wunderground v.1.15,2013-01-04 05:05:00,
2013-01-04 00:08:00,27.4,22.6,30.30,WSW,239,2.0,7.0,82,0.00,,,0.00,Wunderground v.1.15,2013-01-04 05:08:00,
2013-01-04 00:13:00,27.4,22.6,30.30,WSW,248,3.0,8.0,82,0.00,,,0.00,Wunderground v.1.15,2013-01-04 05:13:00,
2013-01-04 00:18:00,27.4,22.6,30.30,WSW,240,4.0,8.0,82,0.00,,,0.00,Wunderground v.1.15,2013-01-04 05:18:00,
2013-01-04 00:23:00,27.3,22.5,30.30,WSW,248,3.0,7.0,82,0.00,,,0.00,Wunderground v.1.15,2013-01-04 05:23:00,
2013-01-04 00:29:00,27.3,22.5,30.30,WNW,297,3.0,7.0,82,0.00,,,0.00,Wunderground v.1.15,2013-01-04 05:29:00,
2013-01-04 00:34:00,27.4,22.6,30.30,WSW,257,4.0,11.0,82,0.00,,,0.00,Wunderground v.1.15,2013-01-04 05:34:00,
2013-01-04 00:39:00,27.4,22.6,30.30,WSW,255,5.0,11.0,82,0.00,,,0.00,Wunderground v.1.15,2013-01-04 05:39:00,
2013-01-04 00:45:00,27.4,22.3,30.29,WSW,244,5.0,10.0,81,0.00,,,0.00,Wunderground v.1.15,2013-01-04 05:45:00,
2013-01-04 00:50:00,27.4,22.6,30.29,WSW,240,5.0,5.0,82,0.00,,,0.00,Wunderground v.1.15,2013-01-04 05:50:00,
2013-01-04 00:55:00,27.4,22.6,30.29,WSW,250,5.0,7.0,82,0.00,,,0.00,Wunderground v.1.15,2013-01-04 05:55:00,
2013-01-04 01:01:00,27.4,22.3,30.29,West,267,5.0,7.0,81,0.00,,,0.00,Wunderground v.1.15,2013-01-04 06:01:00,
2013-01-04 01:06:00,27.5,22.4,30.29,WNW,296,4.0,10.0,81,0.00,,,0.00,Wunderground v.1.15,2013-01-04 06:06:00,
2013-01-04 01:11:00,27.5,22.1,30.29,WSW,246,4.0,7.0,80,0.00,,,0.00,Wunderground v.1.15,2013-01-04 06:11:00,
2013-01-04 01:17:00,27.6,22.2,30.28,WSW,242,5.0,9.0,80,0.00,,,0.00,Wunderground v.1.15,2013-01-04 06:17:00,
2013-01-04 01:22:00,27.6,22.2,30.28,WSW,239,4.0,7.0,80,0.00,,,0.00,Wunderground v.1.15,2013-01-04 06:22:00,
2013-01-04 01:27:00,27.6,22.5,30.28,West,265,4.0,9.0,81,0.00,,,0.00,Wunderground v.1.15,2013-01-04 06:27:00,
2013-01-04 01:32:00,27.5,22.4,30.28,SW,232,5.0,7.0,81,0.00,,,0.00,Wunderground v.1.15,2013-01-04 06:32:00,
2013-01-04 01:37:00,27.5,22.4,30.28,SW,217,6.0,7.0,81,0.00,,,0.00,Wunderground v.1.15,2013-01-04 06:37:00,
2013-01-04 01:43:00,27.5,22.4,30.28,WSW,247,6.0,11.0,81,0.00,,,0.00,Wunderground v.1.15,2013-01-04 06:43:00,
2013-01-04 01:48:00,27.6,22.5,30.28,SW,236,5.0,11.0,81,0.00,,,0.00,Wunderground v.1.15,2013-01-04 06:48:00,
2013-01-04 01:53:00,27.6,22.5,30.28,WSW,244,7.0,10.0,81,0.00,,,0.00,Wunderground v.1.15,2013-01-04 06:53:00,
2013-01-04 01:58:00,27.6,22.5,30.28,WNW,290,7.0,10.0,81,0.00,,,0.00,Wunderground v.1.15,2013-01-04 06:58:00,
2013-01-04 02:04:00,27.6,22.2,30.29,West,269,6.0,7.0,80,0.00,,,0.00,Wunderground v.1.15,2013-01-04 07:04:00,
2013-01-04 02:09:00,27.6,21.9,30.29,West,275,6.0,10.0,79,0.00,,,0.00,Wunderground v.1.15,2013-01-04 07:09:00,
2013-01-04 02:14:00,27.7,22.0,30.29,WNW,292,6.0,13.0,79,0.00,,,0.00,Wunderground v.1.15,2013-01-04 07:14:00,
2013-01-04 02:20:00,27.7,21.7,30.29,West,278,6.0,6.0,78,0.00,,,0.00,Wunderground v.1.15,2013-01-04 07:20:00,
2013-01-04 02:26:00,27.6,21.6,30.29,WSW,246,5.0,9.0,78,0.00,,,0.00,Wunderground v.1.15,2013-01-04 07:26:00,
2013-01-04 02:31:00,27.6,21.9,30.29,WSW,240,5.0,7.0,79,0.00,,,0.00,Wunderground v.1.15,2013-01-04 07:31:00,
2013-01-04 02:36:00,27.6,21.9,30.29,WSW,244,5.0,9.0,79,0.00,,,0.00,Wunderground v.1.15,2013-01-04 07:36:00,
2013-01-04 02:42:00,27.5,21.8,30.30,SW,232,5.0,7.0,79,0.00,,,0.00,Wunderground v.1.15,2013-01-04 07:42:00,
2013-01-04 02:47:00,27.5,22.1,30.29,SW,221,4.0,7.0,80,0.00,,,0.00,Wunderground v.1.15,2013-01-04 07:47:00,
2013-01-04 02:52:00,27.5,22.1,30.29,SW,221,4.0,7.0,80,0.00,,,0.00,Wunderground v.1.15,2013-01-04 07:52:00,
2013-01-04 02:58:00,27.5,22.4,30.29,SW,233,4.0,7.0,81,0.00,,,0.00,Wunderground v.1.15,2013-01-04 07:58:00,
2013-01-04 03:03:00,27.4,22.6,30.29,WSW,242,4.0,7.0,82,0.00,,,0.00,Wunderground v.1.15,2013-01-04 08:03:00,
2013-01-04 03:08:00,27.4,22.6,30.29,WSW,241,4.0,7.0,82,0.00,,,0.00,Wunderground v.1.15,2013-01-04 08:08:00,
2013-01-04 03:13:00,27.4,22.9,30.29,SW,232,4.0,9.0,83,0.00,,,0.00,Wunderground v.1.15,2013-01-04 08:13:00,
2013-01-04 03:18:00,27.4,22.6,30.29,SW,236,5.0,9.0,82,0.00,,,0.00,Wunderground v.1.15,2013-01-04 08:18:00,
2013-01-04 03:24:00,27.4,22.6,30.29,WSW,250,5.0,7.0,82,0.00,,,0.00,Wunderground v.1.15,2013-01-04 08:24:00,
2013-01-04 03:29:00,27.5,22.7,30.29,SW,229,6.0,9.0,82,0.00,,,0.00,Wunderground v.1.15,2013-01-04 08:29:00,
2013-01-04 03:35:00,27.5,22.7,30.29,WSW,248,7.0,8.0,82,0.00,,,0.00,Wunderground v.1.15,2013-01-04 08:35:00,
2013-01-04 03:41:00,27.6,22.8,30.29,WSW,242,7.0,10.0,82,0.00,,,0.00,Wunderground v.1.15,2013-01-04 08:41:00,
2013-01-04 03:46:00,27.6,22.8,30.29,SW,232,7.0,11.0,82,0.00,,,0.00,Wunderground v.1.15,2013-01-04 08:46:00,
2013-01-04 03:51:00,27.6,22.8,30.29,SW,228,7.0,7.0,82,0.00,,,0.00,Wunderground v.1.15,2013-01-04 08:51:00,
2013-01-04 03:57:00,27.6,22.8,30.28,WSW,238,6.0,10.0,82,0.00,,,0.00,Wunderground v.1.15,2013-01-04 08:57:00,
2013-01-04 04:03:00,27.7,22.9,30.28,WSW,247,7.0,11.0,82,0.00,,,0.00,Wunderground v.1.15,2013-01-04 09:03:00,
2013-01-04 04:08:00,27.7,22.9,30.28,WSW,240,6.0,11.0,82,0.00,,,0.00,Wunderground v.1.15,2013-01-04 09:08:00,
2013-01-04 04:13:00,27.7,22.9,30.28,WSW,249,6.0,10.0,82,0.00,,,0.00,Wunderground v.1.15,2013-01-04 09:13:00,
2013-01-04 04:19:00,27.7,22.9,30.28,WSW,246,7.0,10.0,82,0.00,,,0.00,Wunderground v.1.15,2013-01-04 09:19:00,
2013-01-04 04:24:00,27.7,22.9,30.28,West,259,6.0,7.0,82,0.00,,,0.00,Wunderground v.1.15,2013-01-04 09:24:00,
2013-01-04 04:29:00,27.8,23.0,30.28,WSW,247,7.0,13.0,82,0.00,,,0.00,Wunderground v.1.15,2013-01-04 09:29:00,
2013-01-04 04:34:00,27.8,23.0,30.28,WSW,244,7.0,9.0,82,0.00,,,0.00,Wunderground v.1.15,2013-01-04 09:34:00,
2013-01-04 04:40:00,27.8,23.3,30.28,WSW,248,6.0,6.0,83,0.00,,,0.00,Wunderground v.1.15,2013-01-04 09:40:00,
2013-01-04 04:45:00,27.8,23.0,30.28,WSW,239,8.0,12.0,82,0.00,,,0.00,Wunderground v.1.15,2013-01-04 09:45:00,
2013-01-04 04:50:00,27.9,23.1,30.28,WSW,250,9.0,9.0,82,0.00,,,0.00,Wunderground v.1.15,2013-01-04 09:50:00,
2013-01-04 04:55:00,27.9,23.1,30.27,WSW,245,8.0,18.0,82,0.00,,,0.00,Wunderground v.1.15,2013-01-04 09:55:00,
2013-01-04 05:01:00,28.0,23.2,30.28,WSW,247,9.0,9.0,82,0.00,,,0.00,Wunderground v.1.15,2013-01-04 10:01:00,
2013-01-04 05:06:00,27.9,23.4,30.28,WSW,244,7.0,9.0,83,0.00,,,0.00,Wunderground v.1.15,2013-01-04 10:06:00,
2013-01-04 05:11:00,27.9,23.4,30.28,WSW,244,5.0,8.0,83,0.00,,,0.00,Wunderground v.1.15,2013-01-04 10:11:00,
2013-01-04 05:16:00,27.8,23.3,30.27,WSW,254,6.0,11.0,83,0.00,,,0.00,Wunderground v.1.15,2013-01-04 10:16:00,
2013-01-04 05:22:00,27.8,23.3,30.27,WSW,255,7.0,10.0,83,0.00,,,0.00,Wunderground v.1.15,2013-01-04 10:22:00,
2013-01-04 05:27:00,27.8,23.3,30.27,WSW,246,6.0,10.0,83,0.00,,,0.00,Wunderground v.1.15,2013-01-04 10:27:00,
2013-01-04 05:32:00,27.8,23.3,30.27,West,261,6.0,9.0,83,0.00,,,0.00,Wunderground v.1.15,2013-01-04 10:32:00,
2013-01-04 05:38:00,27.9,23.4,30.27,West,281,8.0,11.0,83,0.00,,,0.00,Wunderground v.1.15,2013-01-04 10:38:00,
2013-01-04 05:44:00,28.0,23.2,30.27,WNW,299,8.0,16.0,82,0.00,,,0.00,Wunderground v.1.15,2013-01-04 10:44:00,
2013-01-04 05:49:00,28.0,23.2,30.27,WSW,252,9.0,20.0,82,0.00,,,0.00,Wunderground v.1.15,2013-01-04 10:49:00,
2013-01-04 05:54:00,28.1,23.3,30.27,WSW,250,8.0,9.0,82,0.00,,,0.00,Wunderground v.1.15,2013-01-04 10:54:00,
2013-01-04 05:59:00,28.1,23.3,30.27,WSW,244,7.0,12.0,82,0.00,,,0.00,Wunderground v.1.15,2013-01-04 10:59:00,
2013-01-04 06:05:00,28.0,23.2,30.27,WSW,238,7.0,7.0,82,0.00,,,0.00,Wunderground v.1.15,2013-01-04 11:05:00,
2013-01-04 06:11:00,27.9,23.1,30.27,SW,236,7.0,10.0,82,0.00,,,0.00,Wunderground v.1.15,2013-01-04 11:11:00,
2013-01-04 06:16:00,28.0,22.9,30.26,WSW,251,9.0,14.0,81,0.00,,,0.00,Wunderground v.1.15,2013-01-04 11:16:00,
2013-01-04 06:21:00,28.1,22.7,30.27,WSW,254,10.0,10.0,80,0.00,,,0.00,Wunderground v.1.15,2013-01-04 11:21:00,
2013-01-04 06:27:00,28.0,22.9,30.27,West,264,7.0,10.0,81,0.00,,,0.00,Wunderground v.1.15,2013-01-04 11:27:00,
2013-01-04 06:33:00,28.0,22.9,30.27,SW,222,5.0,8.0,81,0.00,,,0.00,Wunderground v.1.15,2013-01-04 11:33:00,
2013-01-04 06:38:00,27.9,22.8,30.26,SW,231,4.0,8.0,81,0.00,,,0.00,Wunderground v.1.15,2013-01-04 11:38:00,
2013-01-04 06:43:00,27.8,23.0,30.26,WSW,239,5.0,7.0,82,0.00,,,0.00,Wunderground v.1.15,2013-01-04 11:43:00,
2013-01-04 06:49:00,27.8,23.3,30.26,WSW,237,5.0,11.0,83,0.00,,,0.00,Wunderground v.1.15,2013-01-04 11:49:00,
2013-01-04 06:54:00,27.8,23.3,30.26,WSW,248,5.0,7.0,83,0.00,,,0.00,Wunderground v.1.15,2013-01-04 11:54:00,
2013-01-04 06:59:00,27.7,23.2,30.27,SW,227,6.0,7.0,83,0.00,,,0.00,Wunderground v.1.15,2013-01-04 11:59:00,
2013-01-04 07:04:00,27.6,22.8,30.27,WSW,250,9.0,16.0,82,0.00,,,0.00,Wunderground v.1.15,2013-01-04 12:04:00,
2013-01-04 07:10:00,27.4,22.3,30.27,SW,229,11.0,11.0,81,0.00,,,0.00,Wunderground v.1.15,2013-01-04 12:10:00,
2013-01-04 07:15:00,27.2,21.8,30.28,WSW,239,9.0,11.0,80,0.00,,,0.00,Wunderground v.1.15,2013-01-04 12:15:00,
2013-01-04 07:20:00,27.0,21.7,30.28,SW,227,10.0,10.0,80,0.00,,,0.00,Wunderground v.1.15,2013-01-04 12:20:00,
2013-01-04 07:25:00,26.9,21.6,30.28,West,259,10.0,16.0,80,0.00,,,0.00,Wunderground v.1.15,2013-01-04 12:25:00,
2013-01-04 07:31:00,26.4,20.8,30.28,WSW,246,11.0,15.0,79,0.00,,,0.00,Wunderground v.1.15,2013-01-04 12:31:00,
2013-01-04 07:36:00,26.2,20.9,30.28,WSW,246,13.0,21.0,80,0.00,,,0.00,Wunderground v.1.15,2013-01-04 12:36:00,
2013-01-04 07:41:00,26.0,20.4,30.28,WSW,248,11.0,12.0,79,0.00,,,0.00,Wunderground v.1.15,2013-01-04 12:41:00,
2013-01-04 07:46:00,25.9,20.6,30.28,WSW,256,8.0,12.0,80,0.00,,,0.00,Wunderground v.1.15,2013-01-04 12:46:00,
2013-01-04 07:52:00,25.7,20.1,30.29,WSW,244,6.0,20.0,79,0.00,,,0.00,Wunderground v.1.15,2013-01-04 12:52:00,
2013-01-04 07:57:00,25.6,20.0,30.28,SW,222,8.0,20.0,79,0.00,,,0.00,Wunderground v.1.15,2013-01-04 12:57:00,
2013-01-04 08:02:00,25.4,19.8,30.29,West,262,10.0,18.0,79,0.00,,,0.00,Wunderground v.1.15,2013-01-04 13:02:00,
2013-01-04 08:08:00,25.2,19.6,30.28,WNW,287,11.0,18.0,79,0.00,,,0.00,Wunderground v.1.15,2013-01-04 13:08:00,
2013-01-04 08:13:00,25.1,19.5,30.29,WSW,240,14.0,17.0,79,0.00,,,0.00,Wunderground v.1.15,2013-01-04 13:13:00,
2013-01-04 08:18:00,25.0,19.7,30.29,WNW,283,13.0,19.0,80,0.00,,,0.00,Wunderground v.1.15,2013-01-04 13:18:00,
2013-01-04 08:23:00,24.8,19.5,30.30,WSW,250,9.0,18.0,80,0.00,,,0.00,Wunderground v.1.15,2013-01-04 13:23:00,
2013-01-04 08:29:00,24.3,18.7,30.30,West,279,12.0,25.0,79,0.00,,,0.00,Wunderground v.1.15,2013-01-04 13:29:00,
2013-01-04 08:34:00,24.1,18.5,30.30,West,273,14.0,16.0,79,0.00,,,0.00,Wunderground v.1.15,2013-01-04 13:34:00,
2013-01-04 08:39:00,24.0,18.4,30.31,West,271,12.0,19.0,79,0.00,,,0.00,Wunderground v.1.15,2013-01-04 13:39:00,
2013-01-04 08:44:00,23.9,18.3,30.31,West,269,13.0,19.0,79,0.00,,,0.00,Wunderground v.1.15,2013-01-04 13:44:00,
2013-01-04 08:50:00,23.9,18.3,30.31,West,274,10.0,10.0,79,0.00,,,0.00,Wunderground v.1.15,2013-01-04 13:50:00,
2013-01-04 08:55:00,23.9,18.3,30.31,West,267,8.0,12.0,79,0.00,,,0.00,Wunderground v.1.15,2013-01-04 13:55:00,
2013-01-04 09:00:00,23.9,18.3,30.31,WSW,252,9.0,13.0,79,0.00,,,0.00,Wunderground v.1.15,2013-01-04 14:00:00,
2013-01-04 09:05:00,23.8,18.2,30.31,West,271,10.0,13.0,79,0.00,,,0.00,Wunderground v.1.15,2013-01-04 14:05:00,
2013-01-04 09:11:00,23.8,18.2,30.31,West,281,9.0,14.0,79,0.00,,,0.00,Wunderground v.1.15,2013-01-04 14:11:00,
2013-01-04 09:16:00,23.9,18.3,30.31,West,276,10.0,14.0,79,0.00,,,0.00,Wunderground v.1.15,2013-01-04 14:16:00,
2013-01-04 09:21:00,23.9,18.0,30.31,West,273,9.0,12.0,78,0.00,,,0.00,Wunderground v.1.15,2013-01-04 14:21:00,
2013-01-04 09:27:00,24.0,18.4,30.31,WSW,256,10.0,15.0,79,0.00,,,0.00,Wunderground v.1.15,2013-01-04 14:27:00,
2013-01-04 09:33:00,24.1,18.2,30.31,West,264,10.0,15.0,78,0.00,,,0.00,Wunderground v.1.15,2013-01-04 14:33:00,
2013-01-04 09:38:00,24.2,18.3,30.32,WNW,296,10.0,15.0,78,0.00,,,0.00,Wunderground v.1.15,2013-01-04 14:38:00,
2013-01-04 09:43:00,24.4,18.5,30.32,WSW,251,10.0,17.0,78,0.00,,,0.00,Wunderground v.1.15,2013-01-04 14:43:00,
2013-01-04 09:49:00,24.6,19.0,30.32,WSW,244,9.0,17.0,79,0.00,,,0.00,Wunderground v.1.15,2013-01-04 14:49:00,
2013-01-04 09:55:00,24.7,19.1,30.32,WSW,257,9.0,13.0,79,0.00,,,0.00,Wunderground v.1.15,2013-01-04 14:55:00,
2013-01-04 10:00:00,24.7,19.1,30.32,SW,229,10.0,10.0,79,0.00,,,0.00,Wunderground v.1.15,2013-01-04 15:00:00,
2013-01-04 10:06:00,24.9,19.3,30.33,WSW,258,10.0,10.0,79,0.00,,,0.00,Wunderground v.1.15,2013-01-04 15:06:00,
2013-01-04 10:12:00,25.1,19.5,30.33,West,259,9.0,9.0,79,0.00,,,0.00,Wunderground v.1.15,2013-01-04 15:12:00,
2013-01-04 10:18:00,25.1,19.2,30.33,West,261,9.0,16.0,78,0.00,,,0.00,Wunderground v.1.15,2013-01-04 15:18:00,
2013-01-04 10:23:00,25.2,19.3,30.33,WNW,285,11.0,15.0,78,0.00,,,0.00,Wunderground v.1.15,2013-01-04 15:23:00,
2013-01-04 10:28:00,25.3,19.4,30.33,WSW,257,9.0,15.0,78,0.00,,,0.00,Wunderground v.1.15,2013-01-04 15:28:00,
2013-01-04 10:34:00,25.6,19.7,30.33,WSW,252,9.0,15.0,78,0.00,,,0.00,Wunderground v.1.15,2013-01-04 15:34:00,
2013-01-04 10:39:00,25.7,19.8,30.33,WSW,239,11.0,18.0,78,0.00,,,0.00,Wunderground v.1.15,2013-01-04 15:39:00,
2013-01-04 10:44:00,25.8,19.9,30.33,WNW,284,11.0,15.0,78,0.00,,,0.00,Wunderground v.1.15,2013-01-04 15:44:00,
2013-01-04 10:49:00,26.1,20.2,30.33,West,279,9.0,16.0,78,0.00,,,0.00,Wunderground v.1.15,2013-01-04 15:49:00,
2013-01-04 10:55:00,26.3,20.4,30.33,WSW,254,9.0,19.0,78,0.00,,,0.00,Wunderground v.1.15,2013-01-04 15:55:00,
2013-01-04 11:00:00,26.6,20.7,30.33,West,261,9.0,9.0,78,0.00,,,0.00,Wunderground v.1.15,2013-01-04 16:00:00,
2013-01-04 11:05:00,26.6,20.7,30.33,WSW,255,7.0,10.0,78,0.00,,,0.00,Wunderground v.1.15,2013-01-04 16:05:00,
2013-01-04 11:10:00,26.6,20.7,30.33,WSW,254,9.0,9.0,78,0.00,,,0.00,Wunderground v.1.15,2013-01-04 16:10:00,
2013-01-04 11:15:00,26.9,21.0,30.33,WSW,242,10.0,11.0,78,0.00,,,0.00,Wunderground v.1.15,2013-01-04 16:15:00,
2013-01-04 11:21:00,27.1,21.2,30.32,West,266,11.0,17.0,78,0.00,,,0.00,Wunderground v.1.15,2013-01-04 16:21:00,
2013-01-04 11:26:00,27.6,21.6,30.32,West,265,10.0,17.0,78,0.00,,,0.00,Wunderground v.1.15,2013-01-04 16:26:00,
2013-01-04 11:31:00,27.9,21.6,30.32,WSW,257,10.0,13.0,77,0.00,,,0.00,Wunderground v.1.15,2013-01-04 16:31:00,
2013-01-04 11:36:00,27.8,21.5,30.31,WSW,244,13.0,18.0,77,0.00,,,0.00,Wunderground v.1.15,2013-01-04 16:36:00,
2013-01-04 11:42:00,27.8,21.5,30.31,West,280,9.0,12.0,77,0.00,,,0.00,Wunderground v.1.15,2013-01-04 16:42:00,
2013-01-04 11:47:00,28.2,21.9,30.31,West,268,9.0,24.0,77,0.00,,,0.00,Wunderground v.1.15,2013-01-04 16:47:00,
2013-01-04 11:52:00,28.2,21.9,30.31,WSW,242,12.0,14.0,77,0.00,,,0.00,Wunderground v.1.15,2013-01-04 16:52:00,
2013-01-04 11:58:00,28.1,21.8,30.30,West,262,13.0,16.0,77,0.00,,,0.00,Wunderground v.1.15,2013-01-04 16:58:00,
2013-01-04 12:03:00,28.4,22.1,30.30,WSW,249,13.0,21.0,77,0.00,,,0.00,Wunderground v.1.15,2013-01-04 17:03:00,
2013-01-04 12:08:00,28.7,22.1,30.30,NW,312,11.0,21.0,76,0.00,,,0.00,Wunderground v.1.15,2013-01-04 17:08:00,
2013-01-04 12:14:00,29.0,22.4,30.29,WSW,238,13.0,18.0,76,0.00,,,0.00,Wunderground v.1.15,2013-01-04 17:14:00,
2013-01-04 12:19:00,29.7,22.7,30.28,SW,215,10.0,18.0,75,0.00,,,0.00,Wunderground v.1.15,2013-01-04 17:19:00,
2013-01-04 12:24:00,29.4,22.1,30.28,West,268,9.0,21.0,74,0.00,,,0.00,Wunderground v.1.15,2013-01-04 17:24:00,
2013-01-04 12:29:00,29.3,22.4,30.28,WSW,254,13.0,21.0,75,0.00,,,0.00,Wunderground v.1.15,2013-01-04 17:29:00,
2013-01-04 12:35:00,29.3,22.4,30.28,SW,234,14.0,18.0,75,0.00,,,0.00,Wunderground v.1.15,2013-01-04 17:35:00,
2013-01-04 12:40:00,29.6,22.6,30.28,WSW,246,14.0,16.0,75,0.00,,,0.00,Wunderground v.1.15,2013-01-04 17:40:00,
2013-01-04 12:45:00,29.4,22.1,30.28,WSW,252,15.0,18.0,74,0.00,,,0.00,Wunderground v.1.15,2013-01-04 17:45:00,
2013-01-04 12:50:00,29.4,22.5,30.28,WSW,240,15.0,18.0,75,0.00,,,0.00,Wunderground v.1.15,2013-01-04 17:50:00,
2013-01-04 12:55:00,29.0,21.7,30.28,West,265,16.0,21.0,74,0.00,,,0.00,Wunderground v.1.15,2013-01-04 17:55:00,
2013-01-04 13:01:00,29.4,22.5,30.28,WSW,252,16.0,17.0,75,0.00,,,0.00,Wunderground v.1.15,2013-01-04 18:01:00,
2013-01-04 13:06:00,29.4,22.1,30.27,WSW,255,17.0,26.0,74,0.00,,,0.00,Wunderground v.1.15,2013-01-04 18:06:00,
2013-01-04 13:11:00,29.5,22.2,30.27,WSW,244,18.0,18.0,74,0.00,,,0.00,Wunderground v.1.15,2013-01-04 18:11:00,
2013-01-04 13:17:00,29.6,22.0,30.27,WSW,242,15.0,21.0,73,0.00,,,0.00,Wunderground v.1.15,2013-01-04 18:17:00,
2013-01-04 13:22:00,29.6,22.0,30.27,WNW,297,15.0,17.0,73,0.00,,,0.00,Wunderground v.1.15,2013-01-04 18:22:00,
2013-01-04 13:27:00,29.8,22.2,30.27,West,272,16.0,27.0,73,0.00,,,0.00,Wunderground v.1.15,2013-01-04 18:27:00,
2013-01-04 13:33:00,30.6,23.0,30.27,WSW,250,14.0,20.0,73,0.00,,,0.00,Wunderground v.1.15,2013-01-04 18:33:00,
2013-01-04 13:38:00,30.6,23.0,30.26,WSW,247,13.0,20.0,73,0.00,,,0.00,Wunderground v.1.15,2013-01-04 18:38:00,
2013-01-04 13:43:00,30.3,22.7,30.26,SW,234,15.0,21.0,73,0.00,,,0.00,Wunderground v.1.15,2013-01-04 18:43:00,
2013-01-04 13:48:00,30.4,22.8,30.26,SW,229,15.0,21.0,73,0.00,,,0.00,Wunderground v.1.15,2013-01-04 18:48:00,
2013-01-04 13:54:00,30.5,22.9,30.26,WSW,242,13.0,14.0,73,0.00,,,0.00,Wunderground v.1.15,2013-01-04 18:54:00,
2013-01-04 13:59:00,30.3,22.4,30.26,West,259,13.0,21.0,72,0.00,,,0.00,Wunderground v.1.15,2013-01-04 18:59:00,
2013-01-04 14:04:00,30.2,22.3,30.26,West,279,13.0,17.0,72,0.00,,,0.00,Wunderground v.1.15,2013-01-04 19:04:00,
2013-01-04 14:10:00,30.2,22.3,30.26,WSW,257,13.0,18.0,72,0.00,,,0.00,Wunderground v.1.15,2013-01-04 19:10:00,
2013-01-04 14:16:00,30.2,22.3,30.25,WSW,242,14.0,19.0,72,0.00,,,0.00,Wunderground v.1.15,2013-01-04 19:16:00,
2013-01-04 14:21:00,30.5,22.9,30.26,WSW,239,14.0,15.0,73,0.00,,,0.00,Wunderground v.1.15,2013-01-04 19:21:00,
2013-01-04 14:26:00,30.7,22.7,30.25,WSW,240,11.0,15.0,72,0.00,,,0.00,Wunderground v.1.15,2013-01-04 19:26:00,
2013-01-04 14:32:00,30.8,22.8,30.25,WNW,285,11.0,16.0,72,0.00,,,0.00,Wunderground v.1.15,2013-01-04 19:32:00,
2013-01-04 14:37:00,30.9,22.9,30.25,SW,236,13.0,21.0,72,0.00,,,0.00,Wunderground v.1.15,2013-01-04 19:37:00,
2013-01-04 14:42:00,30.8,22.8,30.26,WSW,250,15.0,21.0,72,0.00,,,0.00,Wunderground v.1.15,2013-01-04 19:42:00,
2013-01-04 14:47:00,30.7,22.7,30.26,WSW,254,15.0,21.0,72,0.00,,,0.00,Wunderground v.1.15,2013-01-04 19:47:00,
2013-01-04 14:53:00,30.6,22.3,30.26,WSW,244,14.0,19.0,71,0.00,,,0.00,Wunderground v.1.15,2013-01-04 19:53:00,
2013-01-04 14:58:00,30.7,22.4,30.26,WSW,239,14.0,21.0,71,0.00,,,0.00,Wunderground v.1.15,2013-01-04 19:58:00,
2013-01-04 15:03:00,30.8,22.2,30.26,WSW,247,15.0,21.0,70,0.00,,,0.00,Wunderground v.1.15,2013-01-04 20:03:00,
2013-01-04 15:08:00,30.8,22.2,30.26,WSW,246,14.0,21.0,70,0.00,,,0.00,Wunderground v.1.15,2013-01-04 20:08:00,
2013-01-04 15:13:00,30.9,22.3,30.26,WSW,240,13.0,16.0,70,0.00,,,0.00,Wunderground v.1.15,2013-01-04 20:13:00,
2013-01-04 15:19:00,31.1,22.1,30.26,West,270,13.0,17.0,69,0.00,,,0.00,Wunderground v.1.15,2013-01-04 20:19:00,
2013-01-04 15:24:00,31.0,22.0,30.26,West,273,14.0,22.0,69,0.00,,,0.00,Wunderground v.1.15,2013-01-04 20:24:00,
2013-01-04 15:29:00,31.0,22.0,30.26,WSW,247,14.0,22.0,69,0.00,,,0.00,Wunderground v.1.15,2013-01-04 20:29:00,
2013-01-04 15:35:00,31.2,22.2,30.26,WSW,254,11.0,16.0,69,0.00,,,0.00,Wunderground v.1.15,2013-01-04 20:35:00,
2013-01-04 15:40:00,31.2,21.9,30.26,WSW,246,10.0,13.0,68,0.00,,,0.00,Wunderground v.1.15,2013-01-04 20:40:00,
2013-01-04 15:45:00,31.0,21.7,30.25,WSW,241,12.0,16.0,68,0.00,,,0.00,Wunderground v.1.15,2013-01-04 20:45:00,
2013-01-04 15:51:00,31.0,21.7,30.26,SW,232,15.0,16.0,68,0.00,,,0.00,Wunderground v.1.15,2013-01-04 20:51:00,
2013-01-04 15:56:00,31.0,21.3,30.26,WSW,240,15.0,22.0,67,0.00,,,0.00,Wunderground v.1.15,2013-01-04 20:56:00,
2013-01-04 16:01:00,31.1,21.4,30.27,WSW,248,14.0,14.0,67,0.00,,,0.00,Wunderground v.1.15,2013-01-04 21:01:00,
2013-01-04 16:06:00,31.0,21.7,30.27,SW,222,13.0,17.0,68,0.00,,,0.00,Wunderground v.1.15,2013-01-04 21:06:00,
2013-01-04 16:12:00,31.0,21.7,30.27,West,269,12.0,17.0,68,0.00,,,0.00,Wunderground v.1.15,2013-01-04 21:12:00,
2013-01-04 16:17:00,30.9,21.6,30.27,WSW,255,11.0,17.0,68,0.00,,,0.00,Wunderground v.1.15,2013-01-04 21:17:00,
2013-01-04 16:22:00,30.7,21.4,30.27,West,260,12.0,14.0,68,0.00,,,0.01,Wunderground v.1.15,2013-01-04 21:22:00,
2013-01-04 16:27:00,30.3,21.0,30.27,SW,232,13.0,14.0,68,0.00,,,0.01,Wunderground v.1.15,2013-01-04 21:27:00,
2013-01-04 16:32:00,30.1,21.2,30.27,SW,229,10.0,12.0,69,0.00,,,0.01,Wunderground v.1.15,2013-01-04 21:32:00,
2013-01-04 16:38:00,29.9,21.3,30.27,WSW,248,7.0,18.0,70,0.00,,,0.01,Wunderground v.1.15,2013-01-04 21:38:00,
2013-01-04 16:44:00,29.7,21.1,30.27,SW,227,8.0,14.0,70,0.00,,,0.01,Wunderground v.1.15,2013-01-04 21:44:00,
2013-01-04 16:49:00,29.6,21.0,30.27,WNW,283,9.0,16.0,70,0.00,,,0.01,Wunderground v.1.15,2013-01-04 21:49:00,
2013-01-04 16:54:00,29.5,21.3,30.27,WSW,242,9.0,11.0,71,0.00,,,0.01,Wunderground v.1.15,2013-01-04 21:54:00,
2013-01-04 17:00:00,29.3,21.1,30.28,SW,233,9.0,14.0,71,0.00,,,0.01,Wunderground v.1.15,2013-01-04 22:00:00,
2013-01-04 17:06:00,29.2,21.0,30.28,SW,227,11.0,19.0,71,0.00,,,0.01,Wunderground v.1.15,2013-01-04 22:06:00,
2013-01-04 17:12:00,29.0,20.8,30.28,West,269,12.0,17.0,71,0.00,,,0.01,Wunderground v.1.15,2013-01-04 22:12:00,
2013-01-04 17:17:00,28.8,20.9,30.28,West,259,8.0,17.0,72,0.00,,,0.01,Wunderground v.1.15,2013-01-04 22:17:00,
2013-01-04 17:23:00,28.7,20.8,30.28,WSW,241,5.0,8.0,72,0.00,,,0.01,Wunderground v.1.15,2013-01-04 22:23:00,
2013-01-04 17:28:00,28.5,20.6,30.29,WNW,292,5.0,13.0,72,0.00,,,0.01,Wunderground v.1.15,2013-01-04 22:28:00,
2013-01-04 17:33:00,28.4,20.5,30.29,WNW,301,6.0,7.0,72,0.00,,,0.01,Wunderground v.1.15,2013-01-04 22:33:00,
2013-01-04 17:38:00,28.3,20.4,30.29,WSW,250,6.0,9.0,72,0.00,,,0.01,Wunderground v.1.15,2013-01-04 22:38:00,
2013-01-04 17:44:00,28.2,20.3,30.28,WSW,238,7.0,15.0,72,0.00,,,0.01,Wunderground v.1.15,2013-01-04 22:44:00,
2013-01-04 17:49:00,28.0,20.1,30.28,WSW,258,7.0,15.0,72,0.00,,,0.01,Wunderground v.1.15,2013-01-04 22:49:00,
2013-01-04 17:54:00,27.9,20.4,30.28,WSW,245,6.0,10.0,73,0.00,,,0.01,Wunderground v.1.15,2013-01-04 22:54:00,
2013-01-04 17:59:00,27.8,20.3,30.28,WSW,248,5.0,10.0,73,0.00,,,0.01,Wunderground v.1.15,2013-01-04 22:59:00,
2013-01-04 18:05:00,27.6,20.1,30.28,WSW,248,5.0,11.0,73,0.00,,,0.01,Wunderground v.1.15,2013-01-04 23:05:00,
2013-01-04 18:10:00,27.6,20.1,30.28,WSW,258,7.0,7.0,73,0.00,,,0.01,Wunderground v.1.15,2013-01-04 23:10:00,
2013-01-04 18:15:00,27.5,20.0,30.28,WSW,242,6.0,11.0,73,0.00,,,0.01,Wunderground v.1.15,2013-01-04 23:15:00,
2013-01-04 18:21:00,27.3,19.8,30.28,SW,234,6.0,12.0,73,0.00,,,0.01,Wunderground v.1.15,2013-01-04 23:21:00,
2013-01-04 18:26:00,27.3,19.8,30.28,WSW,240,7.0,13.0,73,0.00,,,0.01,Wunderground v.1.15,2013-01-04 23:26:00,
2013-01-04 18:32:00,27.3,19.8,30.28,WSW,243,8.0,14.0,73,0.00,,,0.01,Wunderground v.1.15,2013-01-04 23:32:00,
2013-01-04 18:37:00,27.3,19.8,30.28,WSW,248,9.0,14.0,73,0.00,,,0.01,Wunderground v.1.15,2013-01-04 23:37:00,
2013-01-04 18:42:00,27.2,19.7,30.28,West,261,9.0,19.0,73,0.00,,,0.01,Wunderground v.1.15,2013-01-04 23:42:00,
2013-01-04 18:48:00,27.1,19.6,30.28,WSW,242,9.0,19.0,73,0.00,,,0.01,Wunderground v.1.15,2013-01-04 23:48:00,
2013-01-04 18:53:00,27.0,19.5,30.28,SW,229,9.0,13.0,73,0.00,,,0.01,Wunderground v.1.15,2013-01-04 23:53:00,
2013-01-04 18:58:00,26.9,19.4,30.28,West,260,8.0,13.0,73,0.00,,,0.01,Wunderground v.1.15,2013-01-04 23:58:00,
2013-01-04 19:03:00,26.7,19.2,30.29,WSW,244,7.0,11.0,73,0.00,,,0.01,Wunderground v.1.15,2013-01-05 00:03:00,
2013-01-04 19:09:00,26.6,19.4,30.29,West,263,7.0,11.0,74,0.00,,,0.01,Wunderground v.1.15,2013-01-05 00:09:00,
2013-01-04 19:14:00,26.5,19.3,30.29,West,274,7.0,10.0,74,0.00,,,0.01,Wunderground v.1.15,2013-01-05 00:14:00,
2013-01-04 19:19:00,26.4,19.2,30.29,SW,232,7.0,10.0,74,0.00,,,0.01,Wunderground v.1.15,2013-01-05 00:19:00,
2013-01-04 19:25:00,26.2,19.0,30.29,SW,234,7.0,10.0,74,0.00,,,0.01,Wunderground v.1.15,2013-01-05 00:25:00,
2013-01-04 19:30:00,26.1,19.3,30.29,SW,236,6.0,9.0,75,0.00,,,0.01,Wunderground v.1.15,2013-01-05 00:30:00,
2013-01-04 19:35:00,25.9,19.1,30.29,WSW,243,5.0,9.0,75,0.00,,,0.01,Wunderground v.1.15,2013-01-05 00:35:00,
2013-01-04 19:41:00,25.9,19.1,30.29,WSW,240,5.0,7.0,75,0.00,,,0.01,Wunderground v.1.15,2013-01-05 00:41:00,
2013-01-04 19:46:00,25.8,19.0,30.29,WSW,252,5.0,9.0,75,0.00,,,0.01,Wunderground v.1.15,2013-01-05 00:46:00,
2013-01-04 19:51:00,25.9,19.1,30.30,WSW,247,6.0,7.0,75,0.00,,,0.01,Wunderground v.1.15,2013-01-05 00:51:00,
2013-01-04 19:57:00,25.9,19.1,30.30,WSW,242,6.0,13.0,75,0.00,,,0.01,Wunderground v.1.15,2013-01-05 00:57:00,
2013-01-04 20:02:00,25.8,19.0,30.30,WSW,246,5.0,9.0,75,0.00,,,0.01,Wunderground v.1.15,2013-01-05 01:02:00,
2013-01-04 20:08:00,25.7,18.9,30.30,WSW,244,5.0,9.0,75,0.00,,,0.01,Wunderground v.1.15,2013-01-05 01:08:00,
2013-01-04 20:13:00,25.6,18.8,30.30,WSW,248,5.0,11.0,75,0.00,,,0.01,Wunderground v.1.15,2013-01-05 01:13:00,
2013-01-04 20:19:00,25.3,18.8,30.30,WSW,244,5.0,11.0,76,0.00,,,0.01,Wunderground v.1.15,2013-01-05 01:19:00,
2013-01-04 20:24:00,25.2,18.7,30.30,WSW,244,5.0,7.0,76,0.00,,,0.01,Wunderground v.1.15,2013-01-05 01:24:00,
2013-01-04 20:29:00,25.3,18.8,30.30,WSW,246,6.0,7.0,76,0.00,,,0.01,Wunderground v.1.15,2013-01-05 01:29:00,
2013-01-04 20:34:00,25.2,18.7,30.30,WSW,242,6.0,11.0,76,0.00,,,0.01,Wunderground v.1.15,2013-01-05 01:34:00,
2013-01-04 20:40:00,25.1,18.6,30.30,SW,229,5.0,5.0,76,0.00,,,0.01,Wunderground v.1.15,2013-01-05 01:40:00,
2013-01-04 20:45:00,25.0,18.5,30.30,WSW,244,5.0,7.0,76,0.00,,,0.01,Wunderground v.1.15,2013-01-05 01:45:00,
2013-01-04 20:50:00,25.0,18.5,30.30,WSW,248,5.0,5.0,76,0.00,,,0.01,Wunderground v.1.15,2013-01-05 01:50:00,
2013-01-04 20:56:00,24.9,18.4,30.30,WSW,254,5.0,7.0,76,0.00,,,0.01,Wunderground v.1.15,2013-01-05 01:56:00,
2013-01-04 21:01:00,24.8,18.6,30.30,WSW,248,5.0,7.0,77,0.00,,,0.01,Wunderground v.1.15,2013-01-05 02:01:00,
2013-01-04 21:06:00,24.7,18.5,30.30,WSW,247,4.0,7.0,77,0.00,,,0.01,Wunderground v.1.15,2013-01-05 02:06:00,
2013-01-04 21:11:00,24.5,18.3,30.30,WSW,239,5.0,7.0,77,0.00,,,0.01,Wunderground v.1.15,2013-01-05 02:11:00,
2013-01-04 21:16:00,24.4,18.2,30.30,SW,236,5.0,7.0,77,0.00,,,0.01,Wunderground v.1.15,2013-01-05 02:16:00,
2013-01-04 21:22:00,24.3,18.4,30.30,WSW,245,4.0,7.0,78,0.00,,,0.01,Wunderground v.1.15,2013-01-05 02:22:00,
2013-01-04 21:27:00,24.2,18.3,30.30,SW,235,4.0,7.0,78,0.00,,,0.01,Wunderground v.1.15,2013-01-05 02:27:00,
2013-01-04 21:32:00,24.0,18.1,30.30,WSW,246,4.0,7.0,78,0.00,,,0.01,Wunderground v.1.15,2013-01-05 02:32:00,
2013-01-04 21:37:00,24.0,18.1,30.31,WSW,245,5.0,7.0,78,0.00,,,0.01,Wunderground v.1.15,2013-01-05 02:37:00,
2013-01-04 21:43:00,24.1,18.5,30.31,WSW,243,6.0,7.0,79,0.00,,,0.01,Wunderground v.1.15,2013-01-05 02:43:00,
2013-01-04 21:48:00,24.1,18.5,30.31,WSW,248,5.0,9.0,79,0.00,,,0.01,Wunderground v.1.15,2013-01-05 02:48:00,
2013-01-04 21:53:00,24.0,18.4,30.31,WSW,245,5.0,7.0,79,0.00,,,0.01,Wunderground v.1.15,2013-01-05 02:53:00,
2013-01-04 21:58:00,24.0,18.4,30.31,WSW,240,5.0,7.0,79,0.00,,,0.01,Wunderground v.1.15,2013-01-05 02:58:00,
2013-01-04 22:04:00,23.9,18.0,30.31,WSW,242,5.0,7.0,78,0.00,,,0.01,Wunderground v.1.15,2013-01-05 03:04:00,
2013-01-04 22:09:00,23.8,18.2,30.31,WSW,238,4.0,7.0,79,0.00,,,0.01,Wunderground v.1.15,2013-01-05 03:09:00,
2013-01-04 22:14:00,23.6,18.0,30.31,WSW,238,5.0,7.0,79,0.00,,,0.01,Wunderground v.1.15,2013-01-05 03:14:00,
2013-01-04 22:20:00,23.5,17.9,30.31,WSW,252,4.0,7.0,79,0.00,,,0.01,Wunderground v.1.15,2013-01-05 03:20:00,
2013-01-04 22:25:00,23.4,17.8,30.31,SW,232,4.0,7.0,79,0.00,,,0.01,Wunderground v.1.15,2013-01-05 03:25:00,
2013-01-04 22:30:00,23.3,18.0,30.31,WSW,248,4.0,7.0,80,0.00,,,0.01,Wunderground v.1.15,2013-01-05 03:30:00,
2013-01-04 22:35:00,23.3,18.0,30.32,West,269,4.0,7.0,80,0.00,,,0.01,Wunderground v.1.15,2013-01-05 03:35:00,
2013-01-04 22:41:00,23.3,18.0,30.32,West,260,4.0,7.0,80,0.00,,,0.01,Wunderground v.1.15,2013-01-05 03:41:00,
2013-01-04 22:46:00,23.3,18.0,30.31,WSW,245,4.0,7.0,80,0.00,,,0.01,Wunderground v.1.15,2013-01-05 03:46:00,
2013-01-04 22:51:00,23.4,18.1,30.31,WSW,244,5.0,7.0,80,0.00,,,0.01,Wunderground v.1.15,2013-01-05 03:51:00,
2013-01-04 22:56:00,23.4,18.1,30.32,SW,235,5.0,7.0,80,0.00,,,0.01,Wunderground v.1.15,2013-01-05 03:56:00,
2013-01-04 23:02:00,23.3,18.0,30.32,WSW,242,5.0,7.0,80,0.00,,,0.01,Wunderground v.1.15,2013-01-05 04:02:00,
2013-01-04 23:07:00,23.3,18.0,30.32,WSW,247,4.0,7.0,80,0.00,,,0.01,Wunderground v.1.15,2013-01-05 04:07:00,
2013-01-04 23:12:00,23.1,17.8,30.32,SW,223,4.0,7.0,80,0.00,,,0.01,Wunderground v.1.15,2013-01-05 04:12:00,
2013-01-04 23:17:00,22.9,17.7,30.32,WSW,248,4.0,7.0,80,0.00,,,0.01,Wunderground v.1.15,2013-01-05 04:17:00,
2013-01-04 23:23:00,22.7,17.5,30.32,WSW,250,4.0,7.0,80,0.00,,,0.01,Wunderground v.1.15,2013-01-05 04:23:00,
2013-01-04 23:28:00,22.6,17.4,30.33,SW,235,4.0,7.0,80,0.00,,,0.01,Wunderground v.1.15,2013-01-05 04:28:00,
2013-01-04 23:33:00,22.6,17.6,30.32,WSW,239,4.0,8.0,81,0.00,,,0.01,Wunderground v.1.15,2013-01-05 04:33:00,
2013-01-04 23:38:00,22.6,17.6,30.32,SW,232,5.0,8.0,81,0.00,,,0.01,Wunderground v.1.15,2013-01-05 04:38:00,
2013-01-04 23:44:00,22.5,17.5,30.32,WSW,242,5.0,7.0,81,0.00,,,0.01,Wunderground v.1.15,2013-01-05 04:44:00,
2013-01-04 23:49:00,22.4,17.5,30.32,WSW,240,4.0,7.0,81,0.00,,,0.01,Wunderground v.1.15,2013-01-05 04:49:00,
2013-01-04 23:54:00,22.3,17.4,30.33,WSW,239,4.0,7.0,81,0.00,,,0.01,Wunderground v.1.15,2013-01-05 04:54:00,
2013-01-04 23:59:00,22.2,17.3,30.33,WSW,240,4.0,8.0,81,0.00,,,0.01,Wunderground v.1.15,2013-01-05 04:59:00,